Погода в Сан-Роки

Бразилия     23°31′52″S   47°08′04″W
темп.,
°C
ветер,
м/с
пор.,
м/с
влажн.,
%
обл.,
%
осадки,
мм/ч
давл.,
гПа
погр.,
м
25 января, пн
пн2500:00+18юв2594100 0.9 1014143
03:00+18вюв2393100 1.0 101268
06:00+18в1293100 0.4 101332
09:00+23с2679100 0.4 1014448
12:00+26ссз4669100 1.2 1013947
15:00+25ссз3579100 6.9 1011678
18:00+23сз1289100 2.4 101176
21:00+20ююв0188100 2.8 101332
26 января, вт
вт2600:00+20вюв1189100 0.0 101324
03:00+19в1290100 0.0 101226
06:00+19в1290100 0.0 101227
09:00+23ссв2473100 0.0 1014420
12:00+27ссз4661100 0.0 10131356
15:00+26ссз357395 0.9 10101006
18:00+25ссз128544 2.9 1011150
21:00+21всв119171 3.5 101330
27 января, ср
ср2700:00+20всв1291100 0.6 101330
03:00+19св1293100 0.6 101130
06:00+19ссв1294100 0.0 101237
09:00+24с41075100 0.0 1013748
12:00+27ссз6964100 0.0 10121334
15:00+28ссз576280 0.3 10091420
18:00+25ссз367537 0.3 1008540
21:00+21ссв129137 0.4 101039
28 января, чт
чт2800:00+20ссв129189 0.0 101154
03:00+20ссв279494 0.0 1010244
06:00+19с299498 0.0 1010341
09:00+24ссз5107299 0.0 1012857
12:00+27ссз685956 0.0 10101254
15:00+28ссз576054 0.0 10081415
18:00+26сз357471 0.4 1008560
21:00+22сз128469 0.4 101038
29 января, пт
пт2900:00+21св1288100 0.0 101129
03:00+20св1287100 0.0 101036
06:00+18св1183100 0.0 101231
09:00+24ссз3763100 0.0 1013600
12:00+28ссз4654100 0.0 10121393
15:00+29ссз455383 0.0 10091592
18:00+26ссз246971 0.0 1010179
21:00+21всв117686 0.0 101129